Time,TemperatureF,DewpointF,PressureIn,WindDirection,WindDirectionDegrees,WindSpeedMPH,WindSpeedGustMPH,Humidity,HourlyPrecipIn,Conditions,Clouds,dailyrainin,SoftwareType,DateUTC
2013-06-08 00:01:00,70.4,-34.8,29.50,West,270,2.0,23.0,1,-99.99,,,0.00,Weather View 32 v70,2013-06-08 04:01:00,
2013-06-08 00:02:00,70.4,-34.8,29.50,West,270,2.0,23.0,1,-99.99,,,0.00,Weather View 32 v70,2013-06-08 04:02:00,
2013-06-08 00:07:00,70.5,-34.8,29.50,West,270,2.0,23.0,1,-99.99,,,0.00,Weather View 32 v70,2013-06-08 04:07:00,
2013-06-08 00:12:00,70.7,-34.6,29.49,West,270,2.0,15.0,1,-99.99,,,0.00,Weather View 32 v70,2013-06-08 04:12:00,
2013-06-08 00:17:00,70.6,-34.7,29.49,WSW,247,1.0,9.0,1,0.20,,,0.00,Weather View 32 v70,2013-06-08 04:17:00,
2013-06-08 00:22:00,70.6,-34.7,29.49,WSW,247,1.0,8.0,1,0.13,,,0.01,Weather View 32 v70,2013-06-08 04:22:00,
2013-06-08 00:27:00,70.6,-34.7,29.49,SW,225,3.0,8.0,1,0.09,,,0.01,Weather View 32 v70,2013-06-08 04:27:00,
2013-06-08 00:32:00,70.6,-34.7,29.49,SSW,202,2.0,8.0,1,0.05,,,0.01,Weather View 32 v70,2013-06-08 04:32:00,
2013-06-08 00:37:00,70.6,-34.7,29.49,South,180,4.0,8.0,1,0.01,,,0.01,Weather View 32 v70,2013-06-08 04:37:00,
2013-06-08 00:42:00,70.5,-34.8,29.49,SSW,202,3.0,8.0,1,0.01,,,0.01,Weather View 32 v70,2013-06-08 04:42:00,
2013-06-08 00:47:00,70.7,-34.6,29.49,SW,225,4.0,7.0,1,0.01,,,0.01,Weather View 32 v70,2013-06-08 04:47:00,
2013-06-08 00:52:00,70.7,-34.6,29.49,SSW,202,4.0,7.0,1,0.01,,,0.01,Weather View 32 v70,2013-06-08 04:52:00,
2013-06-08 00:57:00,70.7,-34.6,29.49,SSW,202,3.0,6.0,1,0.01,,,0.01,Weather View 32 v70,2013-06-08 04:57:00,
2013-06-08 01:02:00,70.7,-34.6,29.49,South,180,5.0,6.0,1,0.01,,,0.01,Weather View 32 v70,2013-06-08 05:02:00,
2013-06-08 01:07:00,70.7,-34.6,29.48,SSW,202,2.0,6.0,1,0.01,,,0.01,Weather View 32 v70,2013-06-08 05:07:00,
2013-06-08 01:12:00,70.8,-34.6,29.48,SW,225,1.0,6.0,1,0.01,,,0.01,Weather View 32 v70,2013-06-08 05:12:00,
2013-06-08 01:17:00,70.8,-34.6,29.48,SW,225,2.0,6.0,1,0.01,,,0.01,Weather View 32 v70,2013-06-08 05:17:00,
2013-06-08 01:22:00,70.9,-34.5,29.48,SW,225,2.0,6.0,1,0.00,,,0.01,Weather View 32 v70,2013-06-08 05:22:00,
2013-06-08 01:27:00,70.9,-34.5,29.48,SSW,202,4.0,6.0,1,0.00,,,0.01,Weather View 32 v70,2013-06-08 05:27:00,
2013-06-08 01:32:00,70.9,-34.5,29.49,SW,225,4.0,6.0,1,0.00,,,0.01,Weather View 32 v70,2013-06-08 05:32:00,
2013-06-08 01:37:00,70.9,-34.5,29.49,SW,225,4.0,6.0,1,0.00,,,0.01,Weather View 32 v70,2013-06-08 05:37:00,
2013-06-08 01:42:00,70.9,-34.5,29.50,SSW,202,5.0,7.0,1,0.00,,,0.01,Weather View 32 v70,2013-06-08 05:42:00,
2013-06-08 01:47:00,70.9,-34.5,29.49,SSW,202,7.0,7.0,1,0.00,,,0.01,Weather View 32 v70,2013-06-08 05:47:00,
2013-06-08 01:52:00,70.9,-34.5,29.48,South,180,6.0,7.0,1,0.00,,,0.01,Weather View 32 v70,2013-06-08 05:52:00,
2013-06-08 01:57:00,70.9,-34.5,29.49,South,180,3.0,8.0,1,0.00,,,0.01,Weather View 32 v70,2013-06-08 05:57:00,
2013-06-08 02:02:00,70.9,-34.5,29.48,SSW,202,5.0,8.0,1,0.00,,,0.01,Weather View 32 v70,2013-06-08 06:02:00,
2013-06-08 02:07:00,70.9,-34.5,29.48,SW,225,4.0,8.0,1,0.00,,,0.01,Weather View 32 v70,2013-06-08 06:07:00,
2013-06-08 02:12:00,70.9,-34.5,29.48,South,180,2.0,8.0,1,0.00,,,0.01,Weather View 32 v70,2013-06-08 06:12:00,
2013-06-08 02:17:00,70.9,-34.5,29.49,SSW,202,4.0,9.0,1,0.00,,,0.01,Weather View 32 v70,2013-06-08 06:17:00,
2013-06-08 02:22:00,70.9,-34.5,29.48,SSW,202,3.0,9.0,1,0.00,,,0.01,Weather View 32 v70,2013-06-08 06:22:00,
2013-06-08 02:27:00,70.9,-34.5,29.48,WSW,247,3.0,9.0,1,0.00,,,0.01,Weather View 32 v70,2013-06-08 06:27:00,
2013-06-08 02:32:00,70.8,-34.6,29.49,SW,225,2.0,9.0,1,0.00,,,0.01,Weather View 32 v70,2013-06-08 06:32:00,
2013-06-08 02:37:00,70.7,-34.6,29.48,WSW,247,1.0,9.0,1,0.00,,,0.01,Weather View 32 v70,2013-06-08 06:37:00,
2013-06-08 02:42:00,70.6,-34.7,29.48,South,180,2.0,9.0,1,0.00,,,0.01,Weather View 32 v70,2013-06-08 06:42:00,
2013-06-08 02:48:00,70.6,-34.7,29.48,South,180,2.0,9.0,1,0.40,,,0.01,Weather View 32 v70,2013-06-08 06:48:00,
2013-06-08 02:53:00,70.6,-34.7,29.48,SSW,202,6.0,9.0,1,0.00,,,0.01,Weather View 32 v70,2013-06-08 06:53:00,
2013-06-08 02:58:00,70.6,-34.7,29.48,SW,225,4.0,9.0,1,0.00,,,0.01,Weather View 32 v70,2013-06-08 06:58:00,
2013-06-08 03:03:00,70.6,-34.7,29.48,SW,225,3.0,9.0,1,0.00,,,0.01,Weather View 32 v70,2013-06-08 07:03:00,
2013-06-08 03:08:00,70.6,-34.7,29.48,SSW,202,2.0,9.0,1,0.00,,,0.01,Weather View 32 v70,2013-06-08 07:08:00,
2013-06-08 03:13:00,70.4,-34.8,29.48,SSW,202,4.0,9.0,1,0.00,,,0.01,Weather View 32 v70,2013-06-08 07:13:00,
2013-06-08 03:18:00,70.3,-34.9,29.47,South,180,3.0,9.0,1,0.00,,,0.01,Weather View 32 v70,2013-06-08 07:18:00,
2013-06-08 03:23:00,70.3,-34.9,29.48,SW,225,2.0,9.0,1,0.00,,,0.01,Weather View 32 v70,2013-06-08 07:23:00,
2013-06-08 03:28:00,70.2,-34.9,29.48,South,180,2.0,9.0,1,0.00,,,0.01,Weather View 32 v70,2013-06-08 07:28:00,
2013-06-08 03:33:00,70.1,-35.0,29.48,South,180,1.0,9.0,1,0.00,,,0.01,Weather View 32 v70,2013-06-08 07:33:00,
2013-06-08 03:38:00,69.9,-35.1,29.48,SW,225,1.0,9.0,1,0.00,,,0.01,Weather View 32 v70,2013-06-08 07:38:00,
2013-06-08 03:43:00,69.9,-35.1,29.48,WSW,247,2.0,9.0,1,0.00,,,0.01,Weather View 32 v70,2013-06-08 07:43:00,
2013-06-08 03:48:00,69.9,-35.1,29.48,SW,225,3.0,9.0,1,0.00,,,0.01,Weather View 32 v70,2013-06-08 07:48:00,
2013-06-08 03:53:00,70.0,-35.1,29.48,SW,225,3.0,9.0,1,0.00,,,0.01,Weather View 32 v70,2013-06-08 07:53:00,
2013-06-08 03:58:00,69.9,-35.1,29.48,South,180,1.0,9.0,1,0.00,,,0.01,Weather View 32 v70,2013-06-08 07:58:00,
2013-06-08 04:03:00,69.9,-35.1,29.48,SSW,202,2.0,9.0,1,0.00,,,0.01,Weather View 32 v70,2013-06-08 08:03:00,
2013-06-08 04:08:00,69.9,-35.1,29.48,SW,225,2.0,7.0,1,0.00,,,0.01,Weather View 32 v70,2013-06-08 08:08:00,
2013-06-08 04:13:00,69.8,-35.2,29.48,SW,225,1.0,7.0,1,0.00,,,0.01,Weather View 32 v70,2013-06-08 08:13:00,
2013-06-08 04:18:00,69.8,-35.2,29.48,South,180,2.0,7.0,1,0.00,,,0.01,Weather View 32 v70,2013-06-08 08:18:00,
2013-06-08 04:23:00,69.8,-35.2,29.48,SSW,202,3.0,7.0,1,0.00,,,0.01,Weather View 32 v70,2013-06-08 08:23:00,
2013-06-08 04:28:00,69.8,-35.2,29.49,WSW,247,3.0,6.0,1,0.00,,,0.01,Weather View 32 v70,2013-06-08 08:28:00,
2013-06-08 04:33:00,69.8,-35.2,29.49,SW,225,2.0,6.0,1,0.00,,,0.01,Weather View 32 v70,2013-06-08 08:33:00,
2013-06-08 04:38:00,69.8,-35.2,29.49,SW,225,2.0,6.0,1,0.00,,,0.01,Weather View 32 v70,2013-06-08 08:38:00,
2013-06-08 04:43:00,69.8,-35.2,29.49,SW,225,2.0,6.0,1,0.00,,,0.01,Weather View 32 v70,2013-06-08 08:43:00,
2013-06-08 04:48:00,69.8,-35.2,29.49,SSW,202,2.0,6.0,1,0.00,,,0.01,Weather View 32 v70,2013-06-08 08:48:00,
2013-06-08 04:53:00,69.8,-35.2,29.49,SW,225,1.0,6.0,1,0.00,,,0.01,Weather View 32 v70,2013-06-08 08:53:00,
2013-06-08 04:58:00,69.7,-35.2,29.50,SSW,202,2.0,6.0,1,0.00,,,0.01,Weather View 32 v70,2013-06-08 08:58:00,
2013-06-08 05:03:00,69.6,-35.3,29.50,SSW,202,3.0,6.0,1,0.00,,,0.01,Weather View 32 v70,2013-06-08 09:03:00,
2013-06-08 05:08:00,69.4,-35.4,29.51,SW,225,2.0,6.0,1,0.00,,,0.01,Weather View 32 v70,2013-06-08 09:08:00,
2013-06-08 05:13:00,69.4,-35.4,29.51,SW,225,2.0,6.0,1,0.00,,,0.01,Weather View 32 v70,2013-06-08 09:13:00,
2013-06-08 05:18:00,69.3,-35.5,29.51,SW,225,2.0,6.0,1,0.00,,,0.01,Weather View 32 v70,2013-06-08 09:18:00,
2013-06-08 05:23:00,69.3,-35.5,29.51,WSW,247,1.0,6.0,1,0.00,,,0.01,Weather View 32 v70,2013-06-08 09:23:00,
2013-06-08 05:28:00,69.2,-35.5,29.51,WSW,247,4.0,6.0,1,0.00,,,0.01,Weather View 32 v70,2013-06-08 09:28:00,
2013-06-08 05:33:00,69.2,-35.5,29.51,SW,225,5.0,6.0,1,0.00,,,0.01,Weather View 32 v70,2013-06-08 09:33:00,
2013-06-08 05:38:00,69.2,-35.5,29.51,WSW,247,6.0,7.0,1,0.00,,,0.01,Weather View 32 v70,2013-06-08 09:38:00,
2013-06-08 05:43:00,69.2,-35.5,29.51,SW,225,4.0,7.0,1,0.00,,,0.01,Weather View 32 v70,2013-06-08 09:43:00,
2013-06-08 05:48:00,69.2,-35.5,29.51,West,270,1.0,7.0,1,0.00,,,0.01,Weather View 32 v70,2013-06-08 09:48:00,
2013-06-08 05:53:00,69.1,-35.6,29.52,West,270,2.0,7.0,1,0.00,,,0.01,Weather View 32 v70,2013-06-08 09:53:00,
2013-06-08 05:58:00,69.1,-35.6,29.52,West,270,2.0,7.0,1,0.00,,,0.01,Weather View 32 v70,2013-06-08 09:58:00,
2013-06-08 06:03:00,69.2,-35.5,29.52,West,270,2.0,7.0,1,0.00,,,0.01,Weather View 32 v70,2013-06-08 10:03:00,
2013-06-08 06:08:00,69.2,-35.5,29.52,West,270,4.0,7.0,1,0.00,,,0.01,Weather View 32 v70,2013-06-08 10:08:00,
2013-06-08 06:13:00,69.2,-35.5,29.53,West,270,5.0,7.0,1,0.00,,,0.01,Weather View 32 v70,2013-06-08 10:13:00,
2013-06-08 06:19:00,69.2,-35.5,29.53,WNW,292,5.0,10.0,1,0.65,,,0.01,Weather View 32 v70,2013-06-08 10:19:00,
2013-06-08 06:24:00,69.2,-35.5,29.53,West,270,4.0,10.0,1,0.00,,,0.01,Weather View 32 v70,2013-06-08 10:24:00,
2013-06-08 06:29:00,69.2,-35.5,29.53,WNW,292,5.0,10.0,1,0.00,,,0.01,Weather View 32 v70,2013-06-08 10:29:00,
2013-06-08 06:34:00,69.2,-35.5,29.53,West,270,4.0,11.0,1,0.00,,,0.01,Weather View 32 v70,2013-06-08 10:34:00,
2013-06-08 06:39:00,69.3,-35.5,29.54,West,270,3.0,11.0,1,0.00,,,0.01,Weather View 32 v70,2013-06-08 10:39:00,
2013-06-08 06:44:00,69.3,-35.5,29.54,WSW,247,2.0,11.0,1,0.00,,,0.01,Weather View 32 v70,2013-06-08 10:44:00,
2013-06-08 06:49:00,69.3,-35.5,29.54,West,270,4.0,11.0,1,0.00,,,0.01,Weather View 32 v70,2013-06-08 10:49:00,
2013-06-08 06:54:00,69.4,-35.4,29.54,West,270,4.0,11.0,1,0.00,,,0.01,Weather View 32 v70,2013-06-08 10:54:00,
2013-06-08 06:59:00,69.4,-35.4,29.54,West,270,2.0,11.0,1,0.00,,,0.01,Weather View 32 v70,2013-06-08 10:59:00,
2013-06-08 07:04:00,69.5,-35.4,29.54,WNW,292,3.0,11.0,1,0.00,,,0.01,Weather View 32 v70,2013-06-08 11:04:00,
2013-06-08 07:09:00,69.6,-35.3,29.55,West,270,4.0,11.0,1,0.00,,,0.01,Weather View 32 v70,2013-06-08 11:09:00,
2013-06-08 07:14:00,69.6,-35.3,29.55,SW,225,2.0,11.0,1,0.00,,,0.01,Weather View 32 v70,2013-06-08 11:14:00,
2013-06-08 07:19:00,69.7,-35.2,29.56,WSW,247,3.0,11.0,1,0.00,,,0.01,Weather View 32 v70,2013-06-08 11:19:00,
2013-06-08 07:24:00,69.7,-35.2,29.56,WSW,247,3.0,11.0,1,0.00,,,0.01,Weather View 32 v70,2013-06-08 11:24:00,
2013-06-08 07:30:00,69.8,-35.2,29.56,West,270,4.0,11.0,1,0.00,,,0.01,Weather View 32 v70,2013-06-08 11:30:00,
2013-06-08 07:35:00,69.8,-35.2,29.56,WSW,247,6.0,9.0,1,0.00,,,0.01,Weather View 32 v70,2013-06-08 11:35:00,
2013-06-08 07:40:00,69.9,-35.1,29.56,West,270,3.0,7.0,1,0.00,,,0.01,Weather View 32 v70,2013-06-08 11:40:00,
2013-06-08 07:45:00,69.9,-35.1,29.56,West,270,5.0,7.0,1,0.00,,,0.01,Weather View 32 v70,2013-06-08 11:45:00,
2013-06-08 07:51:00,70.1,-35.0,29.57,West,270,6.0,7.0,1,0.00,,,0.01,Weather View 32 v70,2013-06-08 11:51:00,
2013-06-08 07:56:00,70.1,-35.0,29.57,WSW,247,7.0,7.0,1,0.00,,,0.01,Weather View 32 v70,2013-06-08 11:56:00,
2013-06-08 08:01:00,70.2,-34.9,29.57,West,270,4.0,7.0,1,0.00,,,0.01,Weather View 32 v70,2013-06-08 12:01:00,
2013-06-08 08:06:00,70.3,-34.9,29.57,WSW,247,4.0,7.0,1,0.00,,,0.01,Weather View 32 v70,2013-06-08 12:06:00,
2013-06-08 08:11:00,70.6,-34.7,29.57,West,270,6.0,11.0,1,0.00,,,0.01,Weather View 32 v70,2013-06-08 12:11:00,
2013-06-08 08:16:00,70.9,-34.5,29.58,West,270,6.0,11.0,1,0.00,,,0.01,Weather View 32 v70,2013-06-08 12:16:00,
2013-06-08 08:21:00,70.9,-34.5,29.58,WSW,247,6.0,11.0,1,0.00,,,0.01,Weather View 32 v70,2013-06-08 12:21:00,
2013-06-08 08:26:00,71.1,-34.4,29.58,West,270,4.0,11.0,1,0.00,,,0.01,Weather View 32 v70,2013-06-08 12:26:00,
2013-06-08 08:31:00,71.4,-34.2,29.59,SW,225,4.0,11.0,1,0.00,,,0.01,Weather View 32 v70,2013-06-08 12:31:00,
2013-06-08 08:37:00,71.7,-34.0,29.59,SW,225,6.0,11.0,1,0.00,,,0.01,Weather View 32 v70,2013-06-08 12:37:00,
2013-06-08 08:42:00,72.0,-33.9,29.59,WSW,247,6.0,11.0,1,0.00,,,0.01,Weather View 32 v70,2013-06-08 12:42:00,
2013-06-08 08:47:00,72.5,-33.6,29.59,West,270,4.0,11.0,1,0.00,,,0.01,Weather View 32 v70,2013-06-08 12:47:00,
2013-06-08 08:52:00,72.6,-33.5,29.59,NW,315,5.0,11.0,1,0.00,,,0.01,Weather View 32 v70,2013-06-08 12:52:00,
2013-06-08 08:57:00,72.8,-33.4,29.59,WNW,292,8.0,11.0,1,0.00,,,0.01,Weather View 32 v70,2013-06-08 12:57:00,
2013-06-08 09:02:00,72.7,-33.4,29.59,West,270,6.0,11.0,1,0.00,,,0.01,Weather View 32 v70,2013-06-08 13:02:00,
2013-06-08 09:07:00,73.2,-33.1,29.60,WNW,292,4.0,11.0,1,0.00,,,0.01,Weather View 32 v70,2013-06-08 13:07:00,
2013-06-08 09:12:00,73.7,-32.8,29.60,West,270,4.0,11.0,1,0.00,,,0.01,Weather View 32 v70,2013-06-08 13:12:00,
2013-06-08 09:17:00,73.9,-32.7,29.60,West,270,11.0,12.0,1,0.00,,,0.01,Weather View 32 v70,2013-06-08 13:17:00,
2013-06-08 09:22:00,73.9,-32.7,29.60,West,270,6.0,12.0,1,0.00,,,0.01,Weather View 32 v70,2013-06-08 13:22:00,
2013-06-08 09:27:00,74.5,-32.4,29.61,WNW,292,13.0,13.0,1,0.00,,,0.01,Weather View 32 v70,2013-06-08 13:27:00,
2013-06-08 09:32:00,74.5,-32.4,29.61,WSW,247,7.0,13.0,1,0.00,,,0.01,Weather View 32 v70,2013-06-08 13:32:00,
2013-06-08 09:37:00,74.9,-32.1,29.61,WNW,292,6.0,13.0,1,0.00,,,0.01,Weather View 32 v70,2013-06-08 13:37:00,
2013-06-08 09:42:00,74.9,-32.1,29.61,WSW,247,7.0,13.0,1,0.00,,,0.01,Weather View 32 v70,2013-06-08 13:42:00,
2013-06-08 09:47:00,75.1,-32.0,29.62,SW,225,4.0,13.0,1,0.00,,,0.01,Weather View 32 v70,2013-06-08 13:47:00,
2013-06-08 09:52:00,75.0,-32.1,29.62,SW,225,8.0,13.0,1,0.00,,,0.01,Weather View 32 v70,2013-06-08 13:52:00,
2013-06-08 09:57:00,75.2,-31.9,29.63,West,270,6.0,13.0,1,0.00,,,0.01,Weather View 32 v70,2013-06-08 13:57:00,
2013-06-08 10:02:00,75.2,-31.9,29.63,West,270,9.0,13.0,1,0.00,,,0.01,Weather View 32 v70,2013-06-08 14:02:00,
2013-06-08 10:07:00,75.3,-31.9,29.63,WNW,292,4.0,13.0,1,0.00,,,0.01,Weather View 32 v70,2013-06-08 14:07:00,
2013-06-08 10:12:00,75.8,-31.6,29.62,West,270,9.0,13.0,1,0.00,,,0.01,Weather View 32 v70,2013-06-08 14:12:00,
2013-06-08 10:24:00,76.6,-31.1,29.63,WNW,292,7.0,13.0,1,0.00,,,0.01,Weather View 32 v70,2013-06-08 14:24:00,
2013-06-08 10:29:00,77.2,-30.7,29.63,WNW,292,7.0,14.0,1,0.00,,,0.01,Weather View 32 v70,2013-06-08 14:29:00,
2013-06-08 10:34:00,76.9,-30.9,29.63,West,270,6.0,14.0,1,0.00,,,0.01,Weather View 32 v70,2013-06-08 14:34:00,
2013-06-08 10:40:00,77.3,-30.7,29.63,West,270,7.0,14.0,1,0.00,,,0.01,Weather View 32 v70,2013-06-08 14:40:00,
2013-06-08 10:47:00,76.7,-31.0,29.63,WSW,247,7.0,14.0,1,0.00,,,0.01,Weather View 32 v70,2013-06-08 14:47:00,
2013-06-08 10:52:00,76.8,-31.0,29.63,WNW,292,3.0,14.0,1,0.00,,,0.01,Weather View 32 v70,2013-06-08 14:52:00,
2013-06-08 10:59:00,76.9,-30.9,29.64,West,270,12.0,14.0,1,0.00,,,0.01,Weather View 32 v70,2013-06-08 14:59:00,
2013-06-08 11:04:00,76.8,-31.0,29.64,WNW,292,11.0,14.0,1,0.00,,,0.01,Weather View 32 v70,2013-06-08 15:04:00,
2013-06-08 11:09:00,77.2,-30.7,29.64,SW,225,8.0,14.0,1,0.00,,,0.01,Weather View 32 v70,2013-06-08 15:09:00,
2013-06-08 11:14:00,77.2,-30.7,29.63,WNW,292,7.0,14.0,1,0.00,,,0.01,Weather View 32 v70,2013-06-08 15:14:00,
2013-06-08 11:19:00,76.8,-31.0,29.63,WNW,292,4.0,14.0,1,0.00,,,0.01,Weather View 32 v70,2013-06-08 15:19:00,
2013-06-08 11:24:00,77.4,-30.6,29.64,West,270,7.0,14.0,1,0.00,,,0.01,Weather View 32 v70,2013-06-08 15:24:00,
2013-06-08 11:29:00,77.5,-30.6,29.64,WSW,247,9.0,14.0,1,0.00,,,0.01,Weather View 32 v70,2013-06-08 15:29:00,
2013-06-08 11:34:00,78.6,-29.9,29.63,West,270,6.0,12.0,1,0.00,,,0.01,Weather View 32 v70,2013-06-08 15:34:00,
2013-06-08 11:39:00,78.9,-29.7,29.64,SW,225,7.0,12.0,1,0.00,,,0.01,Weather View 32 v70,2013-06-08 15:39:00,
2013-06-08 11:44:00,79.2,-29.6,29.64,West,270,11.0,12.0,1,0.00,,,0.01,Weather View 32 v70,2013-06-08 15:44:00,
2013-06-08 11:49:00,79.7,-29.3,29.64,SW,225,3.0,12.0,1,0.00,,,0.01,Weather View 32 v70,2013-06-08 15:49:00,
2013-06-08 11:54:00,79.8,-29.2,29.64,WNW,292,9.0,12.0,1,0.00,,,0.01,Weather View 32 v70,2013-06-08 15:54:00,
2013-06-08 11:59:00,80.0,-29.1,29.64,West,270,7.0,12.0,1,0.00,,,0.01,Weather View 32 v70,2013-06-08 15:59:00,
2013-06-08 12:04:00,80.0,-29.1,29.64,West,270,10.0,12.0,1,0.00,,,0.01,Weather View 32 v70,2013-06-08 16:04:00,
2013-06-08 12:09:00,79.6,-29.3,29.64,WNW,292,11.0,12.0,1,0.00,,,0.01,Weather View 32 v70,2013-06-08 16:09:00,
2013-06-08 12:14:00,79.7,-29.3,29.64,WNW,292,7.0,12.0,1,0.00,,,0.01,Weather View 32 v70,2013-06-08 16:14:00,
2013-06-08 12:19:00,80.1,-29.0,29.64,WSW,247,9.0,12.0,1,0.00,,,0.01,Weather View 32 v70,2013-06-08 16:19:00,
2013-06-08 12:24:00,80.8,-28.6,29.64,West,270,10.0,12.0,1,0.00,,,0.01,Weather View 32 v70,2013-06-08 16:24:00,
2013-06-08 12:29:00,80.5,-28.8,29.64,WSW,247,7.0,15.0,1,0.00,,,0.01,Weather View 32 v70,2013-06-08 16:29:00,
2013-06-08 12:34:00,80.9,-28.5,29.64,WSW,247,12.0,15.0,1,0.00,,,0.01,Weather View 32 v70,2013-06-08 16:34:00,
2013-06-08 12:39:00,80.8,-28.6,29.64,West,270,7.0,15.0,1,0.00,,,0.01,Weather View 32 v70,2013-06-08 16:39:00,
2013-06-08 12:44:00,81.4,-28.2,29.64,West,270,6.0,15.0,1,0.00,,,0.01,Weather View 32 v70,2013-06-08 16:44:00,
2013-06-08 12:49:00,81.4,-28.2,29.64,WNW,292,9.0,15.0,1,0.00,,,0.01,Weather View 32 v70,2013-06-08 16:49:00,
2013-06-08 12:54:00,81.3,-28.3,29.64,West,270,6.0,15.0,1,0.00,,,0.01,Weather View 32 v70,2013-06-08 16:54:00,
2013-06-08 12:59:00,81.2,-28.4,29.64,West,270,2.0,15.0,1,0.00,,,0.01,Weather View 32 v70,2013-06-08 16:59:00,
2013-06-08 13:04:00,80.8,-28.6,29.64,WSW,247,6.0,15.0,1,0.00,,,0.01,Weather View 32 v70,2013-06-08 17:04:00,
2013-06-08 13:09:00,81.0,-28.5,29.64,WNW,292,9.0,15.0,1,0.00,,,0.01,Weather View 32 v70,2013-06-08 17:09:00,
2013-06-08 13:14:00,80.9,-28.5,29.64,WNW,292,7.0,15.0,1,0.00,,,0.01,Weather View 32 v70,2013-06-08 17:14:00,
2013-06-08 13:19:00,81.2,-28.4,29.64,WSW,247,5.0,15.0,1,0.00,,,0.01,Weather View 32 v70,2013-06-08 17:19:00,
2013-06-08 13:24:00,81.7,-28.1,29.64,WSW,247,4.0,15.0,1,0.00,,,0.01,Weather View 32 v70,2013-06-08 17:24:00,
2013-06-08 13:29:00,81.6,-28.1,29.64,West,270,4.0,15.0,1,0.00,,,0.01,Weather View 32 v70,2013-06-08 17:29:00,
2013-06-08 13:34:00,81.7,-6.7,29.64,WSW,247,2.0,14.0,3,0.00,,,0.01,Weather View 32 v70,2013-06-08 17:34:00,
2013-06-08 13:39:00,82.2,-27.8,29.64,WNW,292,7.0,14.0,1,0.00,,,0.01,Weather View 32 v70,2013-06-08 17:39:00,
2013-06-08 13:44:00,82.5,-27.6,29.64,West,270,4.0,14.0,1,0.00,,,0.01,Weather View 32 v70,2013-06-08 17:44:00,
2013-06-08 13:49:00,82.2,-27.8,29.64,WSW,247,4.0,14.0,1,0.00,,,0.01,Weather View 32 v70,2013-06-08 17:49:00,
2013-06-08 13:54:00,82.4,-27.6,29.64,WNW,292,6.0,12.0,1,0.00,,,0.01,Weather View 32 v70,2013-06-08 17:54:00,
2013-06-08 13:59:00,83.2,-27.2,29.64,WNW,292,12.0,12.0,1,0.00,,,0.01,Weather View 32 v70,2013-06-08 17:59:00,
2013-06-08 14:04:00,82.6,12.2,29.64,West,270,8.0,12.0,7,0.00,,,0.01,Weather View 32 v70,2013-06-08 18:04:00,
2013-06-08 14:09:00,82.9,0.1,29.64,WSW,247,4.0,12.0,4,0.00,,,0.01,Weather View 32 v70,2013-06-08 18:09:00,
2013-06-08 14:15:00,83.0,12.5,29.64,West,270,6.0,12.0,7,0.00,,,0.01,Weather View 32 v70,2013-06-08 18:15:00,
2013-06-08 14:20:00,83.2,9.1,29.64,West,270,4.0,12.0,6,0.00,,,0.01,Weather View 32 v70,2013-06-08 18:20:00,
2013-06-08 14:25:00,83.9,13.1,29.64,SW,225,11.0,12.0,7,0.00,,,0.01,Weather View 32 v70,2013-06-08 18:25:00,
2013-06-08 14:30:00,83.6,15.9,29.63,West,270,6.0,12.0,8,0.00,,,0.01,Weather View 32 v70,2013-06-08 18:30:00,
2013-06-08 14:35:00,83.3,15.7,29.64,West,270,6.0,12.0,8,0.00,,,0.01,Weather View 32 v70,2013-06-08 18:35:00,
2013-06-08 14:40:00,82.9,20.6,29.64,SW,225,4.0,12.0,10,0.00,,,0.01,Weather View 32 v70,2013-06-08 18:40:00,
2013-06-08 14:45:00,83.8,16.1,29.64,NW,315,9.0,12.0,8,0.00,,,0.01,Weather View 32 v70,2013-06-08 18:45:00,
2013-06-08 14:50:00,83.3,23.2,29.64,SSW,202,4.0,12.0,11,0.00,,,0.01,Weather View 32 v70,2013-06-08 18:50:00,
2013-06-08 14:55:00,84.7,19.5,29.63,West,270,6.0,12.0,9,0.00,,,0.01,Weather View 32 v70,2013-06-08 18:55:00,
2013-06-08 15:00:00,83.8,27.6,29.63,West,270,5.0,12.0,13,0.00,,,0.01,Weather View 32 v70,2013-06-08 19:00:00,
2013-06-08 15:05:00,83.3,20.9,29.63,WSW,247,4.0,12.0,10,0.00,,,0.01,Weather View 32 v70,2013-06-08 19:05:00,
2013-06-08 15:10:00,84.3,23.9,29.64,West,270,5.0,11.0,11,0.00,,,0.01,Weather View 32 v70,2013-06-08 19:10:00,
2013-06-08 15:15:00,84.6,24.2,29.63,West,270,5.0,11.0,11,0.00,,,0.01,Weather View 32 v70,2013-06-08 19:15:00,
2013-06-08 15:20:00,84.2,23.9,29.64,SW,225,4.0,11.0,11,0.00,,,0.01,Weather View 32 v70,2013-06-08 19:20:00,
2013-06-08 15:25:00,83.5,29.2,29.64,WSW,247,7.0,11.0,14,0.00,,,0.01,Weather View 32 v70,2013-06-08 19:25:00,
2013-06-08 15:30:00,83.9,23.6,29.64,West,270,9.0,11.0,11,0.00,,,0.01,Weather View 32 v70,2013-06-08 19:30:00,
2013-06-08 15:35:00,83.8,27.6,29.64,WNW,292,2.0,11.0,13,0.00,,,0.01,Weather View 32 v70,2013-06-08 19:35:00,
2013-06-08 15:40:00,83.9,29.5,29.63,SW,225,7.0,11.0,14,0.00,,,0.01,Weather View 32 v70,2013-06-08 19:40:00,
2013-06-08 15:45:00,84.6,33.3,29.63,West,270,6.0,11.0,16,0.00,,,0.01,Weather View 32 v70,2013-06-08 19:45:00,
2013-06-08 15:50:00,84.7,34.9,29.64,West,270,6.0,11.0,17,0.00,,,0.01,Weather View 32 v70,2013-06-08 19:50:00,
2013-06-08 15:55:00,85.2,39.5,29.63,West,270,6.0,11.0,20,0.00,,,0.01,Weather View 32 v70,2013-06-08 19:55:00,
2013-06-08 16:00:00,85.1,33.7,29.63,West,270,5.0,11.0,16,0.00,,,0.01,Weather View 32 v70,2013-06-08 20:00:00,
2013-06-08 16:05:00,84.4,34.7,29.63,SSW,202,6.0,11.0,17,0.00,,,0.01,Weather View 32 v70,2013-06-08 20:05:00,
2013-06-08 16:10:00,85.2,40.7,29.63,West,270,5.0,11.0,21,0.00,,,0.01,Weather View 32 v70,2013-06-08 20:10:00,
2013-06-08 16:15:00,85.0,41.8,29.63,WNW,292,3.0,11.0,22,0.00,,,0.01,Weather View 32 v70,2013-06-08 20:15:00,
2013-06-08 16:20:00,84.6,40.2,29.63,West,270,5.0,11.0,21,0.00,,,0.01,Weather View 32 v70,2013-06-08 20:20:00,
2013-06-08 16:25:00,84.5,37.6,29.64,West,270,2.0,11.0,19,0.00,,,0.01,Weather View 32 v70,2013-06-08 20:25:00,
2013-06-08 16:30:00,85.1,40.7,29.64,West,270,1.0,11.0,21,0.00,,,0.01,Weather View 32 v70,2013-06-08 20:30:00,
2013-06-08 16:35:00,85.2,45.3,29.63,WNW,292,1.0,11.0,25,0.00,,,0.01,Weather View 32 v70,2013-06-08 20:35:00,
2013-06-08 16:40:00,85.3,42.0,29.63,West,270,6.0,12.0,22,0.00,,,0.01,Weather View 32 v70,2013-06-08 20:40:00,
2013-06-08 16:45:00,85.1,41.9,29.63,WSW,247,5.0,12.0,22,0.00,,,0.01,Weather View 32 v70,2013-06-08 20:45:00,
2013-06-08 16:50:00,84.6,40.2,29.63,South,180,4.0,12.0,21,0.00,,,0.01,Weather View 32 v70,2013-06-08 20:50:00,
2013-06-08 16:55:00,84.8,40.4,29.63,SW,225,7.0,12.0,21,0.00,,,0.01,Weather View 32 v70,2013-06-08 20:55:00,
2013-06-08 17:00:00,84.8,39.2,29.64,SW,225,5.0,12.0,20,0.00,,,0.01,Weather View 32 v70,2013-06-08 21:00:00,
2013-06-08 17:14:00,84.8,45.0,29.63,SSW,202,2.0,12.0,25,0.00,,,0.01,Weather View 32 v70,2013-06-08 21:14:00,
2013-06-08 17:19:00,84.9,41.7,29.63,SSE,157,4.0,12.0,22,0.00,,,0.01,Weather View 32 v70,2013-06-08 21:19:00,
2013-06-08 17:25:00,85.5,48.6,29.64,West,270,3.0,12.0,28,0.00,,,0.01,Weather View 32 v70,2013-06-08 21:25:00,
2013-06-08 17:30:00,86.1,46.1,29.64,SW,225,6.0,12.0,25,0.00,,,0.01,Weather View 32 v70,2013-06-08 21:30:00,
2013-06-08 17:35:00,85.4,47.5,29.64,WNW,292,3.0,12.0,27,0.00,,,0.01,Weather View 32 v70,2013-06-08 21:35:00,
2013-06-08 17:40:00,85.8,46.8,29.64,SW,225,0.0,12.0,26,0.00,,,0.01,Weather View 32 v70,2013-06-08 21:40:00,
2013-06-08 17:45:00,84.7,48.8,29.64,South,180,1.0,7.0,29,0.00,,,0.01,Weather View 32 v70,2013-06-08 21:45:00,
2013-06-08 17:55:00,86.5,53.0,29.64,WNW,292,6.0,7.0,32,0.00,,,0.01,Weather View 32 v70,2013-06-08 21:55:00,
2013-06-08 18:00:00,86.5,53.0,29.64,WNW,292,7.0,7.0,32,0.00,,,0.01,Weather View 32 v70,2013-06-08 22:00:00,
2013-06-08 18:15:00,84.6,45.8,29.65,SSW,202,1.0,7.0,26,0.00,,,0.01,Weather View 32 v70,2013-06-08 22:15:00,
2013-06-08 18:22:00,85.0,44.1,29.65,SW,225,2.0,7.0,24,0.00,,,0.01,Weather View 32 v70,2013-06-08 22:22:00,
2013-06-08 18:27:00,84.3,38.7,29.65,SSW,202,2.0,7.0,20,0.00,,,0.01,Weather View 32 v70,2013-06-08 22:27:00,
2013-06-08 18:32:00,83.4,33.9,29.65,SSW,202,3.0,7.0,17,0.00,,,0.01,Weather View 32 v70,2013-06-08 22:32:00,
2013-06-08 18:37:00,83.2,30.6,29.65,SSW,202,5.0,7.0,15,0.00,,,0.01,Weather View 32 v70,2013-06-08 22:37:00,
2013-06-08 18:42:00,83.1,30.5,29.65,SSW,202,4.0,7.0,15,0.00,,,0.01,Weather View 32 v70,2013-06-08 22:42:00,
2013-06-08 18:48:00,83.2,28.9,29.65,SSW,202,6.0,7.0,14,0.00,,,0.01,Weather View 32 v70,2013-06-08 22:48:00,
2013-06-08 18:53:00,83.0,25.0,29.65,SW,225,2.0,7.0,12,0.00,,,0.01,Weather View 32 v70,2013-06-08 22:53:00,
2013-06-08 18:58:00,82.6,24.7,29.65,South,180,3.0,7.0,12,0.00,,,0.01,Weather View 32 v70,2013-06-08 22:58:00,
2013-06-08 19:03:00,82.5,17.9,29.66,SSW,202,4.0,6.0,9,0.00,,,0.01,Weather View 32 v70,2013-06-08 23:03:00,
2013-06-08 19:08:00,82.3,15.0,29.66,South,180,2.0,6.0,8,0.00,,,0.01,Weather View 32 v70,2013-06-08 23:08:00,
2013-06-08 19:13:00,81.9,11.7,29.67,South,180,1.0,6.0,7,0.00,,,0.01,Weather View 32 v70,2013-06-08 23:13:00,
2013-06-08 19:18:00,81.8,-0.6,29.67,SSW,202,1.0,6.0,4,0.00,,,0.01,Weather View 32 v70,2013-06-08 23:18:00,
2013-06-08 19:23:00,81.7,-6.7,29.67,South,180,2.0,6.0,3,0.00,,,0.01,Weather View 32 v70,2013-06-08 23:23:00,
2013-06-08 19:28:00,81.5,-6.8,29.67,South,180,2.0,6.0,3,0.00,,,0.01,Weather View 32 v70,2013-06-08 23:28:00,
2013-06-08 19:33:00,81.3,-15.1,29.67,South,180,2.0,6.0,2,0.00,,,0.01,Weather View 32 v70,2013-06-08 23:33:00,
2013-06-08 19:40:00,80.8,-28.6,29.67,South,180,1.0,6.0,1,0.00,,,0.01,Weather View 32 v70,2013-06-08 23:40:00,
2013-06-08 19:45:00,80.7,-28.7,29.67,South,180,1.0,6.0,1,0.00,,,0.01,Weather View 32 v70,2013-06-08 23:45:00,
2013-06-08 19:50:00,80.6,-28.7,29.68,SSW,202,1.0,4.0,1,0.00,,,0.01,Weather View 32 v70,2013-06-08 23:50:00,
2013-06-08 19:55:00,80.4,-28.8,29.68,South,180,2.0,4.0,1,0.00,,,0.01,Weather View 32 v70,2013-06-08 23:55:00,
2013-06-08 20:00:00,80.2,-29.0,29.68,South,180,3.0,4.0,1,0.00,,,0.01,Weather View 32 v70,2013-06-09 00:00:00,
2013-06-08 20:05:00,79.9,-29.1,29.68,South,180,1.0,4.0,1,0.00,,,0.01,Weather View 32 v70,2013-06-09 00:05:00,
2013-06-08 20:10:00,79.7,-29.3,29.68,South,180,2.0,4.0,1,0.00,,,0.01,Weather View 32 v70,2013-06-09 00:10:00,
2013-06-08 20:15:00,79.5,-29.4,29.68,SSW,202,2.0,4.0,1,0.00,,,0.01,Weather View 32 v70,2013-06-09 00:15:00,
2013-06-08 20:20:00,79.3,-29.5,29.68,South,180,3.0,4.0,1,0.00,,,0.01,Weather View 32 v70,2013-06-09 00:20:00,
2013-06-08 20:28:00,79.0,-29.7,29.69,South,180,3.0,4.0,1,0.00,,,0.01,Weather View 32 v70,2013-06-09 00:28:00,
2013-06-08 20:33:00,78.9,-29.7,29.69,South,180,2.0,4.0,1,0.00,,,0.01,Weather View 32 v70,2013-06-09 00:33:00,
2013-06-08 20:38:00,78.6,-29.9,29.69,South,180,4.0,4.0,1,0.00,,,0.01,Weather View 32 v70,2013-06-09 00:38:00,
2013-06-08 20:43:00,78.4,-30.0,29.69,South,180,3.0,4.0,1,0.00,,,0.01,Weather View 32 v70,2013-06-09 00:43:00,
2013-06-08 20:48:00,78.2,-30.1,29.69,South,180,2.0,4.0,1,0.00,,,0.01,Weather View 32 v70,2013-06-09 00:48:00,
2013-06-08 20:53:00,77.9,-30.3,29.69,SSE,157,1.0,4.0,1,0.00,,,0.01,Weather View 32 v70,2013-06-09 00:53:00,
2013-06-08 20:58:00,77.9,-30.3,29.69,South,180,2.0,4.0,1,0.00,,,0.01,Weather View 32 v70,2013-06-09 00:58:00,
2013-06-08 21:03:00,77.8,-30.4,29.69,South,180,1.0,4.0,1,0.00,,,0.01,Weather View 32 v70,2013-06-09 01:03:00,
2013-06-08 21:08:00,77.7,-30.4,29.69,South,180,1.0,4.0,1,0.00,,,0.01,Weather View 32 v70,2013-06-09 01:08:00,
2013-06-08 21:13:00,77.6,-30.5,29.69,SSW,202,1.0,4.0,1,0.00,,,0.01,Weather View 32 v70,2013-06-09 01:13:00,
2013-06-08 21:18:00,77.7,-30.4,29.69,SW,225,1.0,4.0,1,0.00,,,0.01,Weather View 32 v70,2013-06-09 01:18:00,
2013-06-08 21:23:00,77.7,-30.4,29.69,SW,225,1.0,4.0,1,0.00,,,0.01,Weather View 32 v70,2013-06-09 01:23:00,
2013-06-08 21:28:00,77.6,-30.5,29.70,SW,225,1.0,4.0,1,0.00,,,0.01,Weather View 32 v70,2013-06-09 01:28:00,
2013-06-08 21:33:00,77.8,-30.4,29.70,WSW,247,2.0,4.0,1,0.00,,,0.01,Weather View 32 v70,2013-06-09 01:33:00,
2013-06-08 21:40:00,77.9,-30.3,29.70,WSW,247,1.0,4.0,1,0.00,,,0.01,Weather View 32 v70,2013-06-09 01:40:00,
2013-06-08 21:45:00,77.9,-30.3,29.70,WSW,247,1.0,3.0,1,0.00,,,0.01,Weather View 32 v70,2013-06-09 01:45:00,
2013-06-08 21:50:00,78.1,-30.2,29.70,WSW,247,1.0,3.0,1,0.00,,,0.01,Weather View 32 v70,2013-06-09 01:50:00,
2013-06-08 21:55:00,77.8,-30.4,29.70,WSW,247,2.0,3.0,1,0.00,,,0.01,Weather View 32 v70,2013-06-09 01:55:00,
2013-06-08 22:00:00,77.4,-30.6,29.70,WSW,247,0.0,3.0,1,0.00,,,0.01,Weather View 32 v70,2013-06-09 02:00:00,
2013-06-08 22:05:00,76.4,-31.2,29.70,WSW,247,0.0,3.0,1,0.00,,,0.01,Weather View 32 v70,2013-06-09 02:05:00,
2013-06-08 22:10:00,75.7,-31.6,29.70,WSW,247,0.0,3.0,1,0.00,,,0.01,Weather View 32 v70,2013-06-09 02:10:00,
2013-06-08 22:15:00,75.2,-31.9,29.71,WSW,247,0.0,3.0,1,0.00,,,0.01,Weather View 32 v70,2013-06-09 02:15:00,
2013-06-08 22:20:00,74.9,-32.1,29.71,WSW,247,0.0,3.0,1,0.00,,,0.01,Weather View 32 v70,2013-06-09 02:20:00,
2013-06-08 22:25:00,74.6,-32.3,29.71,WSW,247,0.0,3.0,1,0.00,,,0.01,Weather View 32 v70,2013-06-09 02:25:00,
2013-06-08 22:30:00,74.7,-32.2,29.71,WSW,247,0.0,3.0,1,0.00,,,0.01,Weather View 32 v70,2013-06-09 02:30:00,
2013-06-08 22:35:00,74.8,-32.2,29.71,WSW,247,0.0,2.0,1,0.00,,,0.01,Weather View 32 v70,2013-06-09 02:35:00,
2013-06-08 22:40:00,74.3,-32.5,29.71,South,180,2.0,2.0,1,0.00,,,0.01,Weather View 32 v70,2013-06-09 02:40:00,
2013-06-08 22:45:00,73.7,-32.8,29.71,South,180,1.0,2.0,1,0.00,,,0.01,Weather View 32 v70,2013-06-09 02:45:00,
2013-06-08 22:50:00,73.1,-33.2,29.71,South,180,0.0,2.0,1,0.00,,,0.01,Weather View 32 v70,2013-06-09 02:50:00,
2013-06-08 22:55:00,73.1,-33.2,29.71,South,180,1.0,2.0,1,0.00,,,0.01,Weather View 32 v70,2013-06-09 02:55:00,
2013-06-08 23:00:00,72.8,-33.4,29.71,South,180,2.0,2.0,1,0.00,,,0.01,Weather View 32 v70,2013-06-09 03:00:00,
2013-06-08 23:05:00,72.7,-33.4,29.71,South,180,2.0,2.0,1,0.00,,,0.01,Weather View 32 v70,2013-06-09 03:05:00,
2013-06-08 23:10:00,72.7,-33.4,29.72,South,180,2.0,2.0,1,0.00,,,0.01,Weather View 32 v70,2013-06-09 03:10:00,
2013-06-08 23:15:00,73.3,-33.1,29.72,South,180,2.0,4.0,1,0.00,,,0.01,Weather View 32 v70,2013-06-09 03:15:00,
2013-06-08 23:20:00,73.6,-32.9,29.72,South,180,2.0,4.0,1,0.00,,,0.01,Weather View 32 v70,2013-06-09 03:20:00,
2013-06-08 23:25:00,73.9,-32.7,29.71,South,180,2.0,4.0,1,0.00,,,0.01,Weather View 32 v70,2013-06-09 03:25:00,
2013-06-08 23:30:00,73.9,-32.7,29.71,South,180,1.0,4.0,1,0.00,,,0.01,Weather View 32 v70,2013-06-09 03:30:00,
2013-06-08 23:35:00,74.2,-32.5,29.71,South,180,2.0,4.0,1,0.00,,,0.01,Weather View 32 v70,2013-06-09 03:35:00,
2013-06-08 23:40:00,74.1,-32.6,29.71,SSW,202,1.0,4.0,1,0.00,,,0.01,Weather View 32 v70,2013-06-09 03:40:00,
2013-06-08 23:45:00,73.7,-32.8,29.71,SSW,202,0.0,4.0,1,0.00,,,0.01,Weather View 32 v70,2013-06-09 03:45:00,
2013-06-08 23:51:00,73.5,-33.0,29.72,South,180,1.0,4.0,1,0.00,,,0.01,Weather View 32 v70,2013-06-09 03:51:00,
2013-06-08 23:56:00,73.3,-33.1,29.72,South,180,1.0,4.0,1,0.21,,,0.01,Weather View 32 v70,2013-06-09 03:56:00,